Theta_e
329 327 330 331 331 331 332 331 331 331 330 329 329 329 328 328 328 327 327 326 327 326 326 326 326 327 329 331 330 329 329 329 329 329 329 329 330 330 330 330 330 330 329 329 330 331 330 331 332 332 333 333 333 333 332 332 333 332 330 330 330 330 331 330 330 331 329 329 329 328 327 325 323 321 320 320 320 321 324 325 325 326 326 327 327
330 328 328 330 331 331 332 332 332 332 331 330 330 330 329 329 327 326 326 326 326 325 324 324 323 325 328 330 329 328 328 327 328 329 329 328 328 328 328 327 328 329 329 328 328 329 329 330 331 331 331 332 333 333 332 332 332 332 331 330 330 329 329 328 329 329 329 329 328 327 326 325 323 322 322 323 321 320 321 324 325 325 326 326 327
333 331 330 330 330 331 332 332 332 332 332 331 331 330 330 329 326 325 327 326 325 324 324 322 322 324 326 328 329 328 327 327 326 326 326 326 325 324 324 324 325 327 327 327 326 326 327 328 329 330 329 330 331 332 332 331 331 331 330 330 329 328 327 326 326 328 328 328 327 326 327 327 325 324 324 324 324 322 320 322 324 324 325 325 325
333 333 332 330 329 330 331 331 333 332 332 332 331 331 330 330 326 324 328 327 325 323 323 323 322 324 327 328 327 325 324 324 323 323 323 323 322 322 322 322 323 324 325 327 326 324 326 328 328 328 328 329 330 331 332 331 330 330 330 330 330 328 326 326 327 328 328 328 328 326 325 326 328 327 325 324 322 322 321 322 323 323 324 324 324
332 333 334 330 327 329 331 332 332 332 332 332 331 331 330 329 325 323 327 327 325 323 323 324 323 324 326 324 323 321 320 321 321 321 322 323 322 322 322 321 322 323 325 327 326 324 326 328 328 327 328 328 329 329 331 331 330 329 329 329 328 328 327 327 328 328 328 327 327 326 325 327 330 327 326 326 322 321 323 322 322 322 322 321 321
331 333 333 330 327 327 330 331 332 331 332 332 331 329 328 330 325 321 325 326 325 324 325 325 323 323 324 322 320 320 321 320 320 321 322 322 322 321 321 321 321 322 323 324 325 325 326 326 326 326 326 327 328 327 329 330 330 329 329 329 328 327 327 327 328 328 328 327 326 326 327 328 329 327 327 327 325 323 323 323 323 322 322 321 321
332 332 331 330 327 325 327 331 332 331 332 331 331 329 327 330 327 321 324 326 325 325 325 324 323 323 322 321 321 320 320 320 320 321 322 322 321 321 320 320 321 320 320 321 323 325 324 322 322 323 324 326 326 327 328 329 329 328 328 328 328 328 327 328 328 328 328 327 327 326 326 326 326 327 328 329 330 328 325 324 324 324 324 323 321
332 332 331 330 326 325 327 330 331 331 332 332 331 330 329 330 327 321 324 326 324 323 323 323 322 322 322 320 320 319 319 320 321 322 322 321 320 320 320 320 320 320 319 319 319 321 320 319 320 322 323 325 325 326 326 326 326 326 327 327 328 328 327 327 327 327 327 327 327 327 326 326 325 326 326 326 329 330 328 326 324 325 325 324 324
330 330 330 328 325 326 327 329 331 331 332 332 332 332 330 331 328 322 325 326 322 322 322 322 322 322 321 320 319 320 320 321 321 322 321 321 320 320 320 320 320 320 319 317 316 318 319 319 320 321 322 323 323 324 324 324 324 324 325 325 325 326 326 326 326 325 326 326 326 326 326 326 326 325 325 325 326 328 330 326 319 318 321 322 323
329 328 329 326 324 327 326 328 331 331 332 332 332 333 331 332 329 323 325 326 322 321 322 321 321 321 320 319 319 320 321 321 321 321 321 321 320 320 319 319 318 318 317 315 314 316 318 318 318 319 321 321 321 322 322 323 323 323 324 324 324 324 323 322 321 321 322 324 325 326 326 326 325 322 322 323 323 322 325 323 315 313 316 316 317
328 328 328 324 323 326 327 328 330 330 331 332 332 333 333 333 330 325 326 325 321 321 320 320 320 319 318 319 319 320 321 320 320 321 321 321 320 318 317 315 314 315 315 314 312 313 314 313 312 314 317 319 319 320 320 321 321 321 322 322 322 322 319 317 316 316 318 321 323 323 322 321 319 317 316 317 317 317 319 318 313 312 314 313 313
329 331 331 328 327 328 328 329 329 329 331 331 332 333 333 332 329 325 326 325 323 321 319 320 319 317 318 319 320 321 320 319 319 321 321 320 319 316 314 313 313 313 313 313 312 312 312 311 310 311 314 315 315 316 316 317 318 318 319 321 321 320 317 315 315 315 317 318 318 318 317 316 315 314 313 313 313 313 315 315 312 313 314 313 312
332 334 334 336 335 328 326 329 328 328 329 330 331 331 332 332 327 326 326 325 324 322 320 320 318 316 318 321 320 320 320 319 320 321 321 320 317 314 313 314 314 313 312 312 312 312 311 311 311 313 313 311 311 311 312 312 311 310 311 314 315 316 314 313 313 313 314 315 314 313 313 312 312 312 312 313 313 313 313 313 312 312 313 313 312
330 332 334 338 336 327 325 327 328 328 328 328 330 329 329 329 327 326 326 325 324 323 320 318 316 316 320 322 320 320 319 318 320 321 321 319 316 314 314 313 313 312 310 310 311 311 311 312 313 314 313 311 310 310 309 307 306 304 304 304 306 308 308 309 310 312 312 312 312 311 311 310 311 311 311 312 312 312 312 312 312 312 312 312 311
329 331 334 336 332 327 327 327 327 327 327 327 328 328 328 328 327 326 325 325 324 322 320 317 315 317 320 321 320 319 318 318 320 321 320 318 314 313 313 311 309 309 308 309 310 310 311 313 314 313 312 312 311 310 307 306 305 303 302 302 302 303 304 306 309 310 310 309 308 307 308 309 309 308 308 309 310 312 311 311 312 313 315 314 311
327 330 333 332 328 328 329 328 327 327 326 327 328 327 328 327 327 326 325 324 324 323 323 319 316 318 320 320 320 319 317 318 320 321 320 316 313 312 311 309 308 307 307 309 310 310 310 311 312 312 313 313 313 313 310 308 306 304 303 304 304 303 303 305 308 309 309 308 307 307 305 306 307 305 304 304 306 309 311 311 310 311 315 316 315
326 328 330 329 326 326 328 328 327 326 326 327 327 327 328 327 327 327 325 325 324 324 324 320 317 318 319 321 320 319 318 318 319 321 319 316 315 314 311 308 307 307 308 309 310 309 307 308 310 312 314 314 313 313 313 310 307 305 305 306 306 306 304 304 306 308 309 309 309 309 308 306 307 307 306 305 305 307 308 309 308 308 311 314 316
324 325 325 324 323 325 326 326 326 326 326 326 326 327 327 327 328 327 325 325 325 324 323 320 318 318 319 321 321 320 319 318 318 319 319 317 317 316 313 311 310 308 308 309 310 310 308 306 306 308 312 313 313 312 312 311 307 305 306 308 308 307 305 304 305 306 308 309 309 310 309 307 307 308 309 308 308 308 308 307 308 308 309 311 312
324 324 324 324 321 322 325 326 326 326 326 327 326 326 327 326 327 327 325 326 325 324 323 321 318 317 319 320 320 321 319 318 317 317 317 318 318 317 316 315 314 312 311 310 310 311 309 307 305 305 308 311 312 312 312 311 309 308 308 309 310 309 307 305 305 305 305 307 309 309 309 307 305 306 309 310 309 308 308 308 308 308 308 309 309
325 324 324 323 320 320 323 326 327 326 326 327 326 326 326 326 326 326 325 326 325 324 323 321 318 317 317 317 319 321 321 319 317 316 317 318 318 318 317 317 317 316 315 313 311 311 309 308 307 305 306 307 309 311 312 311 312 312 310 309 310 310 307 306 306 307 305 306 307 307 308 307 306 306 308 309 308 307 308 308 308 309 309 309 309
326 325 324 322 319 319 321 323 326 326 326 326 325 323 323 324 325 325 325 326 325 324 323 320 317 314 315 315 317 321 321 319 318 317 318 319 319 319 318 318 318 317 317 316 314 313 312 309 308 307 307 306 307 309 311 311 312 313 311 311 311 310 309 309 308 307 306 306 307 308 308 308 307 306 306 306 307 307 307 307 307 308 308 307 307
326 326 324 321 318 317 318 321 323 324 325 325 324 322 322 323 325 325 325 325 324 323 322 319 316 315 316 315 317 321 321 320 318 318 319 319 319 319 318 318 318 318 318 317 317 317 315 313 312 311 310 309 308 308 309 309 310 312 312 311 312 310 310 311 311 309 307 306 307 308 308 308 308 307 305 304 306 306 307 307 307 307 306 306 305
326 327 324 319 317 317 317 318 320 322 324 324 324 323 322 323 325 325 325 325 325 323 321 320 320 320 320 319 320 322 321 320 318 318 319 319 319 319 319 319 318 318 319 318 318 318 317 317 316 315 315 314 313 311 310 309 308 309 311 311 312 311 310 311 312 311 310 308 307 306 307 308 308 308 307 305 305 307 307 307 307 306 306 305 305
326 326 322 317 316 317 316 317 317 319 321 323 324 324 323 323 324 324 324 323 323 322 321 322 323 323 323 322 322 322 321 320 320 320 319 319 319 319 319 319 319 318 319 318 319 318 318 318 317 318 317 317 317 316 314 313 311 310 310 311 311 311 310 311 312 312 311 310 309 308 307 307 307 307 308 306 305 306 307 307 307 306 306 305 304
326 325 323 320 318 317 316 316 316 318 320 321 323 324 323 323 323 324 323 323 322 321 321 323 323 324 323 322 322 322 322 321 321 321 320 320 320 319 318 320 319 319 319 319 319 319 318 319 318 318 318 318 318 318 317 316 316 314 312 311 311 311 311 312 312 312 312 311 311 310 309 309 308 307 308 307 306 306 306 307 307 306 305 304 303
325 324 324 323 319 315 315 316 316 317 319 320 322 323 324 324 324 324 323 323 323 322 322 323 323 323 321 321 321 322 322 322 321 321 321 320 320 319 320 320 319 319 319 318 319 319 319 319 318 318 319 319 318 318 318 318 318 317 316 314 313 312 312 312 312 312 311 311 311 311 310 309 309 308 308 308 307 306 306 306 306 305 304 303 301
323 323 322 322 320 316 314 315 315 315 317 319 321 322 323 324 323 324 324 323 323 323 323 322 322 322 320 320 322 322 322 321 322 321 321 320 320 319 319 320 320 320 319 319 319 319 319 319 319 319 319 319 319 319 319 319 319 319 318 316 315 313 313 313 313 313 311 311 311 311 310 310 309 309 308 308 307 306 306 306 305 305 303 301 298
321 321 321 320 320 317 313 313 314 314 315 317 319 320 322 323 322 322 323 323 322 323 323 322 322 321 321 321 321 321 321 321 322 322 321 321 321 320 319 320 321 321 321 321 321 320 320 320 320 320 319 319 320 320 320 320 319 319 318 318 317 315 314 313 313 314 312 311 311 311 310 310 309 309 308 307 307 306 306 305 304 304 302 299 296
317 319 320 320 321 317 312 311 312 312 313 315 315 317 319 320 320 321 322 322 322 322 322 322 321 321 321 321 320 321 322 321 321 322 322 321 320 320 319 319 319 319 319 320 320 320 320 320 320 320 319 319 319 319 319 319 319 319 318 318 317 316 315 314 314 314 313 311 311 311 310 309 309 308 308 307 306 306 305 304 304 303 301 299 297
317 317 316 317 318 315 310 310 311 311 313 313 313 314 315 315 317 318 319 320 321 322 322 322 321 320 320 320 320 320 321 320 319 320 320 319 319 320 321 320 319 318 317 318 318 318 319 319 319 319 318 318 317 317 317 317 318 319 319 318 318 317 316 315 314 314 313 312 311 311 311 309 308 308 307 307 306 305 304 303 303 302 300 299 298
320 318 315 314 314 312 309 310 311 311 312 313 313 313 312 312 314 314 315 316 317 319 319 319 319 320 320 320 320 320 320 320 320 319 320 320 320 320 321 321 320 319 319 319 319 319 319 319 319 319 319 319 318 318 318 318 319 319 320 319 318 317 317 316 315 314 313 312 311 311 310 309 308 308 307 306 305 304 303 303 302 301 300 299 299
320 319 317 315 312 310 308 309 311 312 312 312 312 312 312 311 311 311 311 312 312 313 313 313 315 316 317 318 318 318 319 319 318 318 318 319 319 319 320 320 319 319 318 318 318 318 319 318 318 319 320 320 320 321 321 321 321 320 320 320 319 318 317 316 315 315 314 313 312 310 309 309 308 308 306 304 304 303 303 302 302 301 301 300 300
312 312 312 311 309 307 306 307 309 310 312 312 311 312 311 311 311 310 310 310 310 310 310 310 310 311 313 315 314 314 316 317 316 316 317 317 317 317 318 319 319 318 319 319 319 319 319 319 320 321 321 322 322 322 322 321 321 322 321 321 319 318 317 316 315 314 314 312 311 310 308 308 307 306 305 303 303 303 302 302 302 301 301 300 300
309 309 309 308 307 307 307 308 307 307 310 311 311 311 311 311 311 310 310 309 309 309 309 308 308 308 310 312 311 311 313 313 313 314 314 314 313 314 314 315 316 317 318 319 320 320 320 321 321 321 320 320 319 318 318 319 320 321 321 321 320 318 316 315 315 313 312 311 310 308 307 307 306 305 304 303 303 303 302 302 301 301 301 300 300
311 312 310 308 307 307 307 308 307 307 307 308 309 310 310 310 310 309 309 309 308 309 308 307 307 307 309 310 310 310 310 311 311 311 311 311 310 310 311 312 314 315 316 317 317 319 320 321 321 320 317 316 315 314 315 317 318 318 318 319 319 318 316 314 313 312 311 309 308 307 306 306 305 304 303 303 302 302 302 301 301 301 300 300 300
311 310 310 309 309 307 306 307 307 306 307 307 307 307 308 308 309 309 309 309 309 309 309 308 308 308 308 309 309 309 310 310 309 309 309 309 309 309 310 310 312 313 314 315 315 316 318 319 319 318 317 316 316 315 315 315 316 316 317 317 317 316 314 312 311 310 309 307 306 306 305 304 303 303 302 302 301 301 301 301 301 300 300 300 299
308 306 306 308 307 306 306 306 305 305 306 306 306 306 306 307 307 308 308 308 308 308 308 308 309 309 309 309 309 310 310 309 308 308 308 308 308 309 309 309 311 312 313 314 314 314 315 316 316 316 316 317 316 316 316 315 315 315 315 315 314 313 311 309 309 307 306 306 305 304 303 302 302 302 302 301 301 301 300 300 300 299 299 298 298
305 304 304 304 304 305 306 306 305 305 306 306 306 306 306 306 306 307 307 306 306 306 306 307 308 308 309 309 309 310 309 309 308 308 308 308 308 308 308 308 309 310 311 312 314 314 314 314 314 314 315 316 316 316 316 315 314 314 313 312 311 310 308 307 307 306 305 304 303 302 302 302 302 301 301 301 300 300 299 299 298 298 297 297 297
301 301 301 301 302 304 305 305 306 306 306 306 306 306 306 306 306 306 306 306 306 306 306 306 306 307 307 308 308 310 309 309 308 308 308 308 308 308 307 307 307 309 310 310 312 313 314 314 314 314 315 315 316 316 314 312 312 311 311 310 309 308 306 305 305 304 303 302 302 302 302 302 302 301 301 300 299 299 298 298 297 296 296 295 295
300 300 300 300 301 301 302 303 303 304 305 306 306 305 305 306 306 306 306 306 306 305 306 306 306 306 306 306 307 308 309 309 308 308 308 308 307 308 308 307 306 307 307 308 309 311 313 314 313 314 314 315 315 314 312 310 309 309 308 308 307 307 305 304 303 302 302 302 302 302 301 301 301 300 299 298 297 297 297 296 296 295 294 294 293
299 299 299 299 300 300 301 301 301 301 302 303 304 303 304 304 305 305 305 306 306 306 305 306 306 306 306 306 306 306 306 306 306 306 307 306 307 308 309 308 307 306 306 306 307 309 311 313 313 313 314 313 313 312 309 307 307 307 307 306 306 305 304 303 302 301 301 301 300 300 300 299 298 297 297 297 296 296 296 295 295 294 293 293 292
298 298 298 299 299 299 299 299 300 300 300 301 302 302 302 302 303 303 303 304 304 304 305 305 306 306 306 306 306 306 305 305 305 305 305 306 306 308 309 309 309 308 307 306 307 308 310 311 312 312 312 312 310 309 307 305 304 305 305 304 304 304 303 302 301 299 298 298 298 297 297 297 296 296 296 296 296 295 294 294 294 293 293 293 292
297 298 298 298 298 298 298 298 299 299 299 300 300 301 301 301 302 302 302 302 303 303 303 304 304 304 305 305 305 305 305 305 305 305 304 305 306 308 310 309 309 308 307 307 308 309 310 310 310 311 311 310 308 307 305 304 303 303 303 303 303 302 301 301 300 298 297 297 297 296 296 296 296 296 295 294 294 294 293 293 293 293 293 292 292
298 298 298 298 298 298 298 298 299 298 299 299 299 300 301 301 301 302 302 302 302 303 303 303 303 303 304 305 305 305 305 305 305 305 305 305 305 306 308 309 308 308 307 307 308 309 309 309 309 310 310 309 307 305 304 304 303 302 302 301 301 300 299 298 297 296 295 296 296 296 296 296 295 294 294 293 293 293 293 293 293 293 292 291 291
298 298 298 298 298 298 298 298 298 299 299 299 299 300 300 300 301 301 301 301 302 302 302 303 303 304 304 305 305 305 305 305 305 305 305 305 305 305 305 306 307 307 307 308 308 308 308 308 308 308 308 307 306 305 304 302 301 300 299 298 297 296 296 295 295 294 295 295 295 295 295 294 294 294 293 294 293 293 293 293 292 292 291 291 291
298 298 299 299 298 298 298 298 298 299 299 299 299 299 299 300 300 301 301 301 302 302 302 302 302 303 304 305 305 305 305 305 305 305 305 305 305 305 305 305 306 307 308 308 307 307 306 306 306 307 307 306 305 304 302 300 298 297 297 296 294 294 294 294 294 295 295 295 295 294 294 293 293 293 293 293 293 292 292 292 291 291 290 290 290
298 298 298 299 298 298 298 298 298 299 299 299 299 299 299 300 300 300 300 301 301 301 301 302 302 303 303 304 304 304 304 304 304 304 304 304 304 305 305 305 306 308 308 308 306 305 304 304 305 305 305 305 303 301 299 298 296 295 295 294 294 294 295 295 295 295 295 294 293 293 293 293 293 293 292 292 292 291 291 290 290 290 290 290 290
298 298 298 298 298 298 298 298 298 299 299 299 299 299 299 299 300 300 300 300 300 301 301 301 302 302 302 302 302 303 303 304 304 304 304 304 304 304 305 305 306 308 309 308 307 306 305 305 305 304 301 299 298 297 296 296 295 295 294 294 294 296 296 296 295 294 293 293 293 293 293 292 292 292 292 291 291 290 290 290 290 290 290 290 290
295 295 296 296 297 297 298 298 299 299 299 299 300 300 299 300 300 300 300 300 300 300 301 301 301 301 301 301 301 302 302 303 304 303 303 304 305 306 306 307 308 309 310 309 308 308 307 307 306 304 301 298 296 295 295 295 295 294 294 295 296 296 296 294 293 292 292 293 293 293 292 292 292 291 291 290 290 290 290 290 289 289 289 289 289
292 293 293 294 295 296 297 297 298 298 299 299 299 299 300 300 299 300 300 300 300 301 301 301 301 301 301 301 301 301 302 302 302 303 303 304 306 308 308 309 310 310 309 309 308 307 307 307 305 304 302 301 299 297 295 293 293 293 295 296 296 295 293 292 292 292 293 292 292 292 291 291 291 290 290 290 290 289 289 289 289 289 289 289 289
291 291 292 293 294 295 295 296 296 297 297 297 298 299 299 299 299 299 299 300 300 300 300 301 301 301 301 301 301 301 301 301 302 303 303 305 306 307 308 309 309 308 308 308 308 307 307 306 305 304 302 300 299 297 294 293 293 295 296 295 294 292 291 292 292 293 292 292 291 291 291 290 290 290 290 289 289 289 290 290 289 289 289 289 289
Wind_Speed
7 12 18 22 21 17 18 25 30 34 35 35 34 32 31 29 26 24 23 23 23 23 22 21 20 20 20 19 17 16 16 15 13 12 10 8 7 5 4 3 4 5 5 6 6 7 7 8 9 9 8 7 7 10 12 12 11 11 13 14 14 14 13 11 10 9 8 6 3 2 1 1 1 1 2 3 4 4 4 3 2 4 5 4 4
5 7 13 18 16 16 21 26 30 33 33 33 32 29 27 24 23 24 25 24 23 22 22 22 20 21 24 23 21 18 16 14 13 12 10 9 8 5 3 1 2 3 3 3 3 4 5 6 6 5 5 6 7 10 12 12 12 12 14 14 13 13 12 10 9 7 5 5 4 2 1 1 2 1 0 2 3 4 4 4 3 4 6 5 6
6 7 10 14 13 16 23 25 28 32 31 31 30 27 25 23 23 26 26 25 23 22 22 21 20 20 23 25 24 21 18 16 15 13 11 10 8 6 5 3 2 3 4 4 3 2 3 4 4 4 4 5 7 11 13 14 13 14 15 15 13 13 11 9 8 6 5 6 4 2 1 1 1 1 1 2 2 1 3 4 3 4 5 4 4
10 9 9 11 13 18 23 23 27 30 30 30 29 27 26 24 25 27 27 25 24 24 22 20 20 21 24 26 25 22 20 19 17 15 12 11 9 7 5 5 4 3 4 5 3 0 2 4 4 4 3 3 5 10 13 14 14 14 14 14 13 12 10 8 7 6 6 6 3 1 1 2 1 1 1 2 2 2 0 3 3 2 2 3 3
13 12 10 10 14 18 22 24 26 28 29 31 30 28 27 25 26 27 27 25 25 24 22 19 21 24 26 25 22 21 20 19 18 16 14 12 11 9 7 7 7 6 6 8 6 2 2 3 3 3 3 3 3 5 9 12 13 13 12 11 11 10 8 7 7 7 7 6 4 3 1 1 2 2 1 1 2 1 1 1 2 2 2 2 3
13 14 12 11 13 17 20 24 25 26 28 31 30 28 27 26 26 27 27 26 24 23 22 21 22 26 27 25 22 21 19 17 17 17 16 15 13 11 10 10 11 10 8 8 7 6 4 3 3 3 4 4 4 4 5 8 10 9 9 9 7 7 7 7 7 7 7 6 4 4 2 2 3 2 1 1 2 1 1 1 2 2 3 4 5
10 10 11 12 14 16 18 23 26 27 29 31 31 29 29 28 26 28 28 25 23 22 23 24 25 26 26 23 22 21 19 17 17 18 18 16 15 13 13 13 12 10 9 9 8 8 7 6 5 4 6 6 5 6 8 8 8 6 5 6 5 6 7 8 8 8 8 7 6 4 2 4 4 2 2 1 1 1 1 2 3 4 6 6 5
10 10 11 11 14 16 19 24 27 29 30 31 32 31 31 30 28 28 27 24 23 23 25 26 26 27 25 22 20 19 19 19 18 18 17 17 15 14 13 13 12 10 10 10 10 10 11 9 8 7 9 9 9 9 10 10 10 8 7 7 6 5 5 6 8 9 8 9 9 6 3 2 1 1 2 2 2 0 2 2 3 4 5 5 5
12 12 11 11 14 19 22 25 26 29 32 34 34 34 33 31 30 29 27 25 26 25 26 26 25 26 24 22 21 20 20 20 20 18 18 17 16 14 13 12 12 11 10 9 10 11 12 11 10 11 12 13 12 12 12 12 12 10 10 10 9 8 6 6 8 7 6 7 8 7 5 3 1 3 2 2 2 2 1 3 4 4 4 3 3
10 10 10 12 16 19 21 23 26 29 33 34 34 34 34 33 33 31 27 27 28 27 26 26 24 24 24 25 24 23 23 22 21 20 19 18 17 15 13 12 12 12 11 11 11 12 12 11 10 10 12 13 14 14 14 14 13 11 11 12 12 12 10 10 9 8 7 7 6 6 6 4 3 4 4 2 1 1 1 2 3 4 4 4 5
7 7 6 7 11 13 15 18 22 26 28 29 30 32 33 33 34 32 28 29 30 28 28 27 24 23 25 27 27 27 27 25 23 22 21 20 18 17 15 14 13 14 13 13 12 13 11 9 8 9 11 12 12 12 13 13 12 12 12 12 12 12 12 11 11 10 9 10 9 8 7 7 6 6 6 5 3 2 1 1 3 4 3 4 6
6 6 6 7 8 10 13 15 18 22 23 24 27 30 31 33 33 30 26 28 30 28 28 28 25 24 26 28 29 29 29 27 26 25 23 22 20 18 18 17 15 15 14 14 13 12 10 9 9 10 11 11 11 11 10 11 10 10 11 12 11 11 11 10 10 10 10 11 11 9 9 8 8 7 6 5 4 3 2 1 3 4 3 4 6
7 7 6 6 6 9 14 16 18 21 22 23 25 26 27 28 29 28 23 26 31 29 28 28 25 26 28 28 29 30 29 27 27 26 24 23 21 21 20 19 17 16 15 16 15 13 11 11 11 11 11 11 10 10 9 8 9 9 10 11 11 10 9 8 9 10 9 9 10 9 8 7 7 6 5 4 4 3 3 3 3 3 3 4 6
7 7 7 6 5 8 13 17 19 20 20 20 19 19 21 22 24 25 22 26 31 28 26 25 26 28 27 26 29 30 29 27 27 27 25 23 22 22 22 20 18 17 16 17 17 15 14 13 13 11 10 10 9 9 9 9 10 11 11 11 11 10 8 9 10 11 10 9 8 7 7 7 6 5 4 4 4 3 5 6 5 4 3 4 6
7 6 7 6 7 9 10 13 17 18 18 18 17 18 20 21 21 21 19 19 22 22 21 22 26 28 25 26 29 29 28 27 27 27 25 23 23 23 21 20 19 18 17 18 17 16 16 14 14 13 11 10 10 9 9 9 10 11 11 11 11 9 9 10 11 11 10 10 9 7 6 5 5 4 3 2 3 3 5 7 6 4 3 4 5
7 7 7 6 8 11 11 11 14 17 19 20 21 22 22 22 23 22 20 22 27 29 27 26 29 28 25 26 29 28 28 27 27 28 25 23 23 23 21 20 19 19 18 17 16 15 14 14 15 14 12 10 9 9 8 8 9 11 12 11 11 10 10 11 11 10 10 10 9 9 8 6 5 6 6 4 3 4 4 5 7 6 4 3 4
7 7 7 6 8 10 10 13 17 20 21 22 24 26 27 27 28 28 26 27 33 35 34 32 31 28 25 26 29 28 28 28 28 29 27 24 24 22 21 21 20 19 19 18 17 15 14 14 15 15 13 11 10 9 7 6 7 9 10 10 11 10 10 11 10 10 10 8 8 8 8 8 8 9 9 8 7 6 4 4 5 6 4 3 1
7 7 8 7 9 11 12 14 18 22 23 24 25 26 28 29 31 32 29 27 30 32 33 32 31 29 27 27 28 29 30 31 29 29 28 27 26 24 23 23 22 20 20 19 18 15 13 13 14 14 14 12 11 9 8 6 6 8 8 8 9 9 9 10 10 9 9 7 6 6 6 7 7 7 7 7 7 6 5 5 5 5 4 3 2
8 8 8 7 9 13 14 14 16 20 23 24 25 24 25 27 30 31 30 28 28 29 31 31 31 32 30 28 28 29 31 33 31 29 30 30 29 27 25 24 23 22 20 19 18 16 13 13 13 13 14 14 12 9 7 6 6 7 7 6 7 6 6 8 8 7 8 8 7 6 5 5 4 4 4 4 4 4 5 5 5 5 5 6 4
8 8 8 8 11 14 15 14 15 17 19 22 22 20 20 24 26 27 26 27 28 28 30 31 32 33 32 30 29 28 31 35 34 31 31 32 32 31 28 26 25 24 22 21 19 17 15 14 14 13 13 14 12 10 8 7 6 5 5 6 6 6 6 6 6 5 6 7 7 5 4 3 3 2 2 2 3 4 5 5 5 5 5 7 8
7 8 8 8 11 14 14 14 14 14 15 17 17 15 15 18 20 22 23 26 27 28 30 32 33 34 33 33 32 29 30 36 36 33 33 33 33 33 30 28 27 26 24 22 21 19 17 15 15 14 13 13 12 11 10 10 9 7 7 7 6 6 7 6 5 4 4 6 6 4 3 1 2 2 1 1 2 3 4 5 5 4 4 6 7
7 8 8 8 10 13 14 14 15 13 12 13 13 13 14 16 18 19 21 23 26 28 31 32 32 31 30 30 29 26 29 36 38 34 33 34 35 35 32 30 29 27 25 23 21 19 18 16 15 14 13 12 12 12 11 11 12 11 10 9 9 9 9 8 7 6 5 5 5 4 3 2 1 2 3 3 2 3 4 5 5 4 4 5 7
7 8 7 9 12 14 15 15 15 13 12 12 11 12 15 17 19 18 19 22 25 26 25 24 24 24 22 22 22 19 21 32 38 37 35 36 35 35 34 33 31 29 27 24 21 19 18 17 15 14 13 12 12 12 12 12 13 13 13 12 12 12 11 11 10 9 8 7 6 5 5 4 3 3 3 4 2 3 5 5 4 4 5 6 7
7 7 7 9 13 14 14 14 14 13 13 12 12 12 13 15 18 18 17 19 18 16 13 12 14 17 16 16 18 17 14 16 23 29 33 36 36 35 33 33 33 31 29 26 23 20 19 17 16 15 14 13 12 12 13 13 13 13 14 14 14 14 13 13 13 12 11 10 9 7 6 6 5 5 4 4 3 3 5 5 5 6 7 8 8
6 6 6 7 9 10 11 12 13 14 14 15 15 14 13 13 15 16 16 16 15 15 14 11 10 13 15 14 15 18 16 12 11 14 18 25 31 33 34 34 34 33 31 28 26 23 21 20 19 18 17 16 15 14 14 14 14 14 15 15 16 16 15 15 15 14 14 14 12 10 8 8 8 7 6 5 5 5 6 7 7 9 9 10 10
6 6 6 6 6 8 11 12 12 13 14 15 16 16 15 15 15 16 17 18 18 19 20 17 12 9 11 14 13 13 15 18 19 18 17 18 22 24 28 32 33 33 32 29 27 25 23 22 21 19 19 18 17 16 16 16 16 16 16 17 17 17 18 17 17 17 16 16 15 13 10 10 10 9 7 7 7 7 8 8 8 10 11 12 13
5 5 5 5 6 7 10 12 12 12 13 14 15 15 16 16 16 16 17 17 18 19 20 19 15 9 10 14 15 12 11 13 18 21 22 23 21 16 16 20 25 28 30 30 28 26 25 24 23 22 22 21 20 19 19 19 19 19 19 20 20 20 20 20 19 19 18 17 16 15 13 13 13 11 9 9 9 9 9 8 9 9 11 13 15
6 6 5 6 6 6 9 12 13 13 13 12 13 13 13 15 15 14 14 15 16 18 19 19 18 15 13 14 15 13 10 8 11 17 19 19 20 18 15 16 18 20 23 25 25 24 24 23 23 23 21 19 19 19 19 21 23 23 23 23 23 23 23 22 22 21 20 18 18 17 15 15 15 13 11 11 11 10 10 9 9 9 11 14 16
3 6 7 7 6 6 9 13 14 15 15 14 13 12 12 13 13 13 12 12 13 14 15 16 17 15 12 11 12 13 11 10 12 15 16 15 17 20 20 21 21 20 22 22 20 20 20 20 20 20 20 19 18 19 19 19 21 24 26 27 27 26 26 25 25 24 22 20 20 19 18 17 17 15 13 12 12 11 10 9 9 9 11 14 13
1 1 3 7 8 7 10 13 14 16 16 16 15 13 11 11 12 13 13 12 12 13 13 14 13 12 15 18 16 14 16 18 15 14 16 18 21 21 21 22 23 25 26 23 20 18 18 18 18 17 18 18 19 20 20 19 19 21 24 27 29 29 28 27 27 26 24 22 22 21 20 19 17 15 13 13 12 11 10 9 9 9 11 12 10
3 4 5 2 4 7 10 13 14 15 16 17 16 15 13 12 11 11 12 13 14 15 15 14 14 14 15 17 17 16 18 18 13 10 11 13 15 16 17 18 19 20 20 19 18 18 17 16 15 14 14 15 16 17 17 18 19 19 20 22 26 29 30 29 29 29 27 25 24 23 21 19 17 15 14 13 12 10 10 9 9 10 11 10 9
6 8 9 8 6 4 5 9 13 16 18 18 17 15 14 13 11 10 10 11 13 14 14 14 15 16 17 17 16 16 16 14 11 9 9 9 10 10 11 11 11 11 11 12 12 13 12 11 10 10 11 12 12 13 13 14 16 18 19 20 23 26 29 31 31 30 29 28 26 24 21 19 17 14 13 11 10 10 10 10 10 10 10 9 9
10 10 10 9 9 11 12 9 6 10 16 19 17 16 14 12 10 9 8 8 8 10 10 11 12 12 14 16 16 14 14 13 10 9 8 8 8 7 7 7 7 7 8 9 10 9 8 8 8 8 8 9 9 10 11 11 13 15 17 19 20 23 26 29 30 30 29 29 27 24 20 17 15 13 11 11 11 10 11 11 12 11 10 9 10
10 9 8 9 12 15 18 17 14 7 7 14 15 15 15 12 9 8 6 4 4 5 6 5 6 7 9 12 13 12 12 11 10 9 8 7 6 5 5 6 7 7 8 9 10 10 10 9 8 8 8 9 10 11 12 11 11 12 14 15 17 20 23 25 26 27 26 24 23 20 17 14 13 12 11 11 11 11 11 11 12 11 10 10 11
8 7 8 11 14 18 20 21 20 18 11 6 7 9 10 8 8 8 6 3 3 4 4 4 5 7 8 9 9 10 11 11 9 9 8 7 6 5 5 5 5 5 5 6 6 8 9 10 10 8 8 10 10 11 10 9 9 9 10 12 14 17 19 19 20 20 19 17 16 15 12 10 10 10 10 10 10 10 10 11 12 12 11 11 10
7 8 10 10 12 15 17 18 19 21 20 16 11 6 5 4 5 8 8 5 4 6 7 6 7 9 9 8 9 10 11 10 8 7 7 6 6 5 5 5 5 5 5 5 4 4 5 7 9 9 10 12 11 10 10 9 8 7 7 8 10 12 14 14 14 14 13 13 11 10 9 8 8 8 8 9 9 9 10 11 12 12 10 9 9
9 12 12 9 8 9 10 11 14 18 21 21 19 15 10 8 6 4 3 3 2 3 5 8 10 11 11 11 11 12 12 10 8 7 6 5 5 4 4 5 5 6 6 6 7 6 6 6 7 9 11 13 13 12 10 9 8 7 5 6 8 11 11 12 12 11 11 11 9 8 8 8 8 8 8 9 10 10 11 11 10 9 8 8 8
10 13 14 13 10 6 5 6 8 12 15 17 19 19 16 12 8 5 4 5 6 5 4 2 4 9 11 14 16 15 14 13 11 9 8 6 6 6 6 6 6 6 5 5 7 8 9 9 9 8 9 12 13 12 10 8 6 6 5 7 10 12 12 12 12 11 10 10 10 9 9 8 8 8 8 8 8 8 9 8 7 7 7 9 10
11 13 16 18 15 8 5 6 7 10 10 10 13 14 14 15 14 9 7 7 6 6 7 6 5 2 2 8 14 17 16 14 13 12 10 9 8 8 8 7 7 6 6 6 7 8 10 10 10 9 10 11 12 12 9 7 6 7 8 10 11 13 12 12 12 13 12 11 10 9 9 8 8 7 7 7 6 6 5 5 6 8 10 11 13
14 16 18 19 18 14 11 10 9 11 10 8 9 10 10 13 15 12 11 12 10 7 5 4 3 4 4 0 6 11 13 13 12 12 10 9 9 10 10 9 8 7 7 7 8 9 10 11 10 10 11 12 12 11 9 9 9 9 10 11 11 12 12 12 12 12 11 10 8 8 7 6 6 6 5 5 4 4 5 7 9 10 11 11 12
16 17 18 19 20 19 18 17 16 16 14 9 8 9 8 8 10 9 10 13 13 11 9 7 6 5 2 0 1 3 5 6 5 6 7 8 9 11 12 11 9 8 7 8 9 10 10 11 11 12 12 12 12 11 11 11 11 10 10 10 10 10 11 11 10 9 8 7 6 6 5 4 3 3 2 3 5 6 8 9 9 9 9 10 11
19 19 19 19 20 21 21 22 23 22 21 17 13 12 13 11 10 10 10 11 11 12 11 10 8 6 5 4 4 4 4 4 4 5 6 8 10 13 13 12 11 10 8 8 10 10 10 11 12 12 12 12 11 11 11 11 11 10 9 8 8 9 9 9 9 8 7 6 6 7 6 4 2 1 4 6 7 8 8 8 8 8 8 9 10
20 21 21 20 19 20 20 22 24 24 24 23 20 17 16 14 14 14 14 14 13 12 12 12 11 11 10 9 9 8 7 5 5 5 6 8 10 13 14 13 12 11 10 8 9 9 10 11 12 12 11 11 12 11 11 10 10 9 8 7 7 8 8 8 8 8 7 8 7 6 4 2 1 4 5 6 5 5 5 5 6 7 8 8 10
19 22 24 22 18 17 18 19 22 22 23 24 22 21 19 18 18 18 18 17 16 14 12 13 14 14 13 12 11 10 9 8 8 9 10 11 11 12 14 15 14 13 12 10 9 10 11 12 13 13 13 12 12 12 11 10 9 8 8 7 7 8 7 7 7 6 7 7 7 5 2 1 3 4 4 3 3 3 3 4 4 5 7 9 10
18 20 22 22 21 20 18 18 19 19 19 19 18 18 17 17 16 15 16 17 17 15 14 14 15 15 14 14 13 12 12 13 13 13 14 14 13 13 15 17 17 16 14 12 11 12 15 15 15 14 14 13 13 13 12 11 10 9 8 8 7 7 7 6 5 5 5 5 4 2 0 2 2 2 2 2 3 3 4 4 4 6 9 11 12
17 18 19 21 22 21 20 19 20 18 17 16 16 17 16 15 12 10 9 10 11 11 11 12 13 14 14 14 14 14 15 16 16 17 17 16 15 14 15 16 17 18 17 15 15 16 17 17 16 15 15 15 15 14 14 13 12 11 10 8 8 7 6 5 5 5 4 3 2 2 1 2 2 3 3 4 4 5 5 6 7 9 11 13 14
17 18 19 20 20 20 21 21 21 20 18 17 19 19 19 18 16 13 11 9 8 7 6 6 7 9 11 11 13 14 15 17 18 19 19 19 18 17 16 15 16 17 17 15 15 16 16 16 16 16 16 17 16 16 16 15 14 13 11 10 9 8 6 5 4 3 3 2 3 4 5 5 5 5 5 6 7 7 8 9 10 12 13 14 15
17 17 17 17 18 19 20 20 20 20 20 19 19 20 21 19 18 16 14 13 12 11 10 9 7 6 6 7 8 10 12 16 19 19 19 18 17 17 17 16 17 18 18 17 16 17 17 17 18 17 17 16 17 18 17 16 16 15 13 11 9 7 5 3 2 2 3 4 5 6 6 6 5 6 7 8 9 10 11 12 13 14 15 16 17
19 19 19 18 18 18 19 20 21 21 21 20 19 20 20 20 19 17 15 15 15 15 14 14 13 12 11 9 9 9 10 13 15 15 14 13 13 15 16 16 16 18 18 16 16 17 19 19 18 17 16 16 17 18 18 16 16 14 12 10 8 5 3 1 2 3 4 6 6 6 6 7 9 10 10 11 12 13 13 15 16 17 18 19 21
22 23 23 22 21 21 20 21 23 23 22 21 22 23 23 22 22 20 17 15 15 16 16 15 14 14 14 13 11 11 11 12 14 13 11 11 12 14 15 16 17 16 15 14 13 13 15 16 17 17 16 15 15 16 18 17 15 13 11 8 6 4 2 3 4 5 6 6 7 8 9 10 10 10 11 12 13 15 16 18 19 20 21 23 24
23 23 23 23 23 23 22 22 22 22 21 21 23 23 24 24 24 22 20 18 17 17 17 17 16 15 15 13 13 13 13 14 15 15 15 15 15 15 15 16 16 15 14 12 12 11 11 13 15 16 17 14 13 15 19 17 14 12 10 7 5 4 5 6 6 6 6 8 9 9 9 9 9 10 11 13 14 16 18 20 22 23 23 24 25
Wind_Direction
195 178 174 172 172 169 169 163 149 145 147 148 151 152 153 153 152 151 154 157 155 154 155 157 165 169 170 169 160 148 143 142 139 139 135 128 128 134 164 193 218 217 216 226 229 228 223 217 212 207 204 202 201 196 192 191 187 181 177 173 170 163 154 153 158 160 150 137 137 152 167 190 204 244 277 280 269 251 225 214 206 184 168 130 106
172 183 185 179 175 172 171 162 149 146 148 151 152 152 153 154 154 154 157 159 161 162 164 164 166 165 165 168 164 154 151 148 143 142 140 135 132 131 140 163 238 221 216 211 211 229 228 217 207 200 205 210 203 198 197 194 188 184 180 174 169 166 162 156 159 171 166 159 161 140 137 198 194 181 212 294 281 262 237 212 180 176 177 145 119
170 185 193 187 175 168 170 162 152 151 152 154 154 154 155 156 157 159 160 164 167 167 167 165 162 162 162 161 160 155 153 153 149 148 149 147 145 149 162 169 202 225 227 213 197 215 223 207 187 179 187 203 207 201 200 200 192 185 184 182 173 166 168 167 175 193 178 161 150 122 145 147 65 49 74 44 2 312 237 212 194 172 179 171 138
176 182 190 182 168 168 171 163 156 155 154 155 156 157 160 161 162 165 166 170 172 170 170 167 160 158 156 156 155 151 150 152 150 150 153 156 156 159 168 170 173 202 213 207 208 234 216 193 173 166 170 185 213 212 208 206 198 188 185 189 184 170 165 169 182 191 175 164 142 89 130 97 76 321 5 44 52 48 126 196 206 199 205 239 235
174 177 183 178 168 171 171 165 160 158 158 159 161 163 165 167 169 170 171 174 176 174 175 175 163 153 148 147 147 143 145 150 151 152 152 152 156 159 164 163 151 143 167 191 201 182 153 178 167 146 148 154 183 207 206 203 198 193 190 193 193 184 175 169 175 181 181 186 168 133 97 80 193 233 343 29 50 48 352 216 214 224 233 286 306
176 175 178 180 171 168 169 167 163 163 164 165 166 169 172 173 173 173 174 177 180 182 184 181 167 157 151 149 146 142 143 149 155 157 156 153 151 150 150 152 147 134 136 162 183 180 150 149 164 159 157 146 130 135 160 180 188 196 206 208 210 213 203 186 182 185 187 193 183 152 108 115 166 157 110 42 356 346 309 281 259 265 268 289 308
175 175 176 179 171 165 169 172 170 169 169 169 171 173 176 177 175 176 178 180 183 184 185 179 168 163 161 160 158 152 149 153 157 155 153 151 147 146 144 144 149 144 131 130 150 163 148 132 134 149 160 152 138 130 129 143 157 167 186 197 207 217 213 203 194 190 190 193 194 180 122 112 125 121 129 120 359 335 325 293 274 281 281 292 300
171 180 182 181 177 172 174 177 175 173 172 172 174 176 179 179 177 179 181 180 178 176 176 175 168 165 165 165 164 161 156 154 156 154 152 151 148 146 143 140 143 146 139 128 132 147 145 132 121 120 133 139 142 139 129 129 133 135 144 158 170 184 202 207 192 186 192 196 199 201 190 170 143 91 130 143 128 144 309 327 331 304 286 293 293
174 179 180 182 185 180 178 179 177 176 176 178 179 180 182 180 178 180 181 177 173 171 171 170 167 165 166 167 165 164 161 157 158 158 157 157 151 148 148 144 143 144 142 133 131 140 140 133 127 124 126 129 134 135 132 131 130 129 133 137 139 140 147 161 158 160 174 182 191 196 187 184 134 84 106 148 123 110 277 313 354 354 345 344 323
174 178 179 183 189 187 181 177 177 179 181 182 182 182 182 180 179 181 181 176 172 170 168 166 164 166 169 169 166 165 163 161 161 160 160 161 155 152 154 153 151 149 144 136 132 135 134 130 130 130 131 130 130 130 130 131 129 126 125 126 128 127 125 125 123 125 135 138 146 158 156 143 99 73 68 82 115 128 200 289 344 9 7 13 15
167 162 151 159 176 182 177 173 176 180 181 181 181 182 181 181 180 180 179 175 172 170 169 167 166 171 173 171 168 166 165 164 164 164 165 165 160 156 154 151 149 149 148 142 135 136 138 136 131 131 137 138 135 133 133 133 132 130 128 128 131 130 124 119 112 110 115 117 116 121 122 113 100 89 82 85 93 93 92 306 336 3 357 355 4
134 124 117 129 145 156 162 167 175 178 178 179 181 182 181 180 179 175 172 172 170 171 173 171 170 176 177 173 170 168 168 167 166 167 170 168 162 157 153 149 146 146 149 148 142 145 151 146 132 125 129 134 135 136 137 141 144 143 142 140 138 136 131 126 119 111 111 111 108 107 106 105 102 97 93 86 81 83 92 53 353 1 341 340 2
107 111 117 124 134 151 161 167 176 180 180 180 180 179 177 177 175 168 167 174 176 178 179 174 174 176 175 174 173 171 172 172 171 171 173 171 166 162 158 155 152 151 152 153 151 153 156 148 136 126 120 121 124 127 128 135 141 141 145 146 144 143 142 141 133 122 119 114 109 107 105 104 99 90 86 85 83 87 82 46 359 352 334 336 355
102 105 106 108 122 150 168 174 178 181 180 178 176 173 171 171 171 167 168 177 178 178 179 175 174 173 173 176 176 175 176 178 177 176 177 178 175 170 166 162 159 157 156 155 156 156 154 148 141 133 124 119 119 123 124 125 127 126 129 133 135 139 140 140 135 127 121 115 111 113 106 99 96 88 86 87 80 75 66 42 7 350 342 352 359
86 83 86 96 106 114 141 168 178 180 176 175 173 172 173 171 168 162 158 163 167 170 178 181 177 173 174 179 180 181 183 184 183 181 182 186 183 177 172 166 161 160 159 157 156 158 158 154 149 143 137 132 128 128 129 128 127 122 120 119 119 124 130 129 129 127 121 114 107 105 103 101 89 68 58 62 69 77 70 54 40 35 12 354 355
73 74 77 78 87 93 103 130 160 173 174 175 177 179 177 169 165 168 170 175 180 183 187 189 183 176 174 179 183 186 187 188 187 184 187 190 185 181 177 170 163 161 161 160 158 159 160 159 157 151 147 145 141 137 131 125 125 122 118 114 107 107 114 117 122 123 116 108 100 88 81 85 77 63 58 60 78 91 81 56 42 52 61 13 345
78 82 88 85 90 99 106 119 141 162 170 176 182 188 185 177 178 185 187 187 188 188 189 188 184 177 175 181 188 193 193 192 191 188 191 194 189 184 180 173 168 166 166 164 161 160 159 161 163 159 154 151 148 149 143 131 131 131 128 122 115 111 111 113 119 123 116 106 100 87 75 80 83 74 72 75 80 83 84 61 30 38 57 56 38
107 102 103 105 105 106 111 122 142 160 171 179 186 193 194 192 194 193 188 184 184 187 187 186 184 180 178 183 191 198 199 196 195 195 195 196 192 189 184 177 172 169 170 168 164 163 162 161 163 163 163 159 154 155 157 155 152 148 146 139 131 128 124 122 122 126 128 124 116 105 88 85 86 81 80 81 76 67 58 48 30 24 30 38 84
108 101 96 96 91 91 102 120 144 161 174 183 188 193 198 198 199 196 191 187 185 186 185 185 188 185 184 188 193 202 205 200 198 198 198 199 196 193 189 183 177 172 171 169 167 168 167 166 164 163 168 170 169 168 173 175 167 161 164 159 150 152 149 139 133 130 135 143 146 134 108 85 81 88 95 87 64 39 19 13 12 11 11 4 358
99 95 88 85 82 85 104 129 150 165 178 187 189 194 198 198 198 196 192 187 185 187 185 185 189 188 188 194 198 205 210 205 200 198 199 202 201 197 195 190 183 179 175 170 169 168 168 170 171 170 173 178 180 179 183 190 185 184 188 181 176 185 188 169 157 154 147 152 160 152 123 84 59 77 116 96 49 23 9 3 357 354 1 353 344
105 101 96 91 88 89 104 130 153 167 183 192 196 201 200 196 196 195 191 187 184 185 184 186 190 190 192 198 202 207 211 207 202 201 201 204 205 202 199 195 190 187 183 177 174 171 167 168 172 176 179 185 190 187 189 196 198 204 211 206 204 207 208 200 188 193 184 168 169 167 154 114 34 34 40 41 33 27 23 22 20 17 18 5 356
112 105 102 100 98 97 102 118 139 157 180 195 200 201 196 190 192 194 195 192 189 188 188 190 196 198 198 201 205 212 215 209 204 203 203 205 208 206 203 199 194 193 191 187 181 177 172 169 171 176 181 186 193 196 197 201 205 211 216 219 223 224 221 218 215 219 217 202 203 211 210 227 271 338 360 350 334 360 7 13 24 32 25 16 9
102 99 101 106 108 106 104 107 120 137 161 185 194 195 194 191 190 194 197 199 199 196 194 198 206 207 206 208 211 218 222 215 208 206 206 207 209 208 205 202 198 195 195 193 189 185 182 179 176 178 182 187 194 201 205 209 211 216 220 223 228 232 232 230 228 231 232 228 230 234 236 245 255 275 326 334 320 340 353 358 6 8 3 0 357
90 93 101 110 110 109 107 106 111 122 139 159 175 185 191 192 193 198 201 201 201 198 198 213 221 216 212 214 213 213 224 229 216 208 206 207 208 208 206 204 201 198 197 196 194 192 190 190 189 187 188 191 195 202 209 215 219 222 226 229 231 233 235 236 237 239 240 241 240 239 239 245 254 261 285 303 293 302 322 329 334 337 338 340 341
95 98 105 111 114 113 114 115 116 119 127 139 151 162 171 180 189 195 194 191 187 185 187 196 210 214 214 211 202 198 205 220 218 207 206 205 204 205 205 205 203 200 199 199 198 197 197 198 200 200 198 199 202 206 211 217 222 227 231 234 234 234 235 237 240 241 241 244 246 246 245 243 250 256 263 276 273 273 290 301 308 316 321 326 331
111 117 118 117 120 123 124 126 125 124 126 130 137 144 149 156 166 175 180 179 176 180 184 185 188 197 200 195 186 181 189 197 195 193 194 194 196 201 204 203 203 200 199 200 200 200 202 205 208 210 209 209 211 216 220 223 226 229 233 235 235 236 236 236 238 239 240 242 245 249 249 243 246 250 249 257 264 267 277 287 297 308 316 322 325
134 132 130 128 130 131 132 131 131 129 129 131 133 135 138 140 143 155 167 169 175 188 194 191 187 176 162 169 174 171 170 175 176 177 181 184 185 192 199 196 195 197 198 201 203 204 207 211 214 216 218 218 219 224 231 235 236 236 237 237 237 237 237 237 237 237 237 238 239 243 245 240 241 244 242 246 256 262 269 280 293 304 312 320 323
143 143 147 146 143 142 138 136 136 134 133 133 132 131 132 134 136 146 158 162 172 188 194 190 187 183 167 158 164 171 173 175 178 181 183 183 182 186 193 193 190 193 196 197 200 203 207 211 216 219 220 222 224 227 233 238 241 241 240 240 240 239 237 236 236 236 237 235 234 237 239 236 235 236 239 246 253 257 264 275 286 295 308 319 322
148 157 158 158 159 159 152 147 144 140 135 133 132 131 130 130 133 141 149 158 168 178 187 193 195 197 199 191 178 178 195 215 216 204 201 206 203 197 198 203 207 211 211 204 199 202 206 210 215 217 218 222 227 231 236 241 244 243 242 242 242 241 239 238 236 234 234 233 231 233 234 232 230 231 236 245 249 253 261 269 276 291 308 317 319
323 188 157 157 159 159 154 150 147 146 143 139 135 134 133 131 134 138 140 146 158 167 178 190 196 204 219 223 216 210 219 229 230 217 211 216 216 208 206 211 215 220 222 220 218 220 224 229 232 232 231 235 242 246 248 250 250 249 249 247 245 243 241 240 238 233 231 230 230 230 228 225 225 229 236 243 247 252 260 265 273 292 307 311 311
3 13 11 45 125 143 148 149 150 149 147 145 143 141 137 135 134 138 142 145 149 154 162 169 172 177 190 202 208 209 211 215 213 203 199 203 206 206 210 215 218 220 224 228 231 234 238 243 248 252 254 257 260 261 261 259 258 258 260 257 251 246 243 241 237 232 229 228 225 223 221 220 223 230 236 241 247 254 261 266 277 293 301 301 296
40 45 33 21 17 42 102 132 149 156 154 151 152 152 148 145 141 134 136 145 147 148 150 153 156 161 164 169 176 183 186 186 180 174 176 180 187 194 202 211 217 221 228 235 240 244 246 250 258 265 270 270 270 272 272 269 265 264 264 261 255 250 245 240 236 233 230 227 222 217 215 217 223 232 238 244 250 256 264 273 281 289 291 290 287
49 49 46 33 15 16 28 45 100 154 164 161 158 157 156 159 160 150 143 146 148 147 148 146 146 152 161 166 167 166 170 174 172 172 176 175 180 191 203 215 222 226 237 243 245 249 253 258 267 274 276 275 276 279 281 280 276 271 267 262 256 252 247 241 236 232 229 224 218 211 208 210 219 230 238 247 253 256 263 271 276 281 284 284 282
45 46 48 35 21 20 20 18 19 34 151 166 166 161 160 167 175 173 173 182 182 179 183 187 179 163 156 163 170 169 169 170 167 170 177 180 186 200 211 224 234 239 247 250 249 251 254 254 257 264 271 277 281 286 287 286 284 280 275 268 257 249 245 241 235 228 223 219 213 208 206 211 220 231 240 244 248 252 258 266 271 275 279 280 279
36 33 36 29 19 15 12 10 8 11 31 87 135 151 158 175 193 192 189 192 210 217 224 230 213 186 166 164 172 172 169 168 169 174 181 188 198 206 211 223 236 240 246 253 254 257 258 251 242 244 263 279 287 291 293 292 289 285 279 270 256 244 240 236 229 223 218 212 207 205 211 223 231 235 238 239 243 248 255 262 267 270 270 271 268
43 40 40 31 15 4 358 359 1 2 9 20 28 51 96 125 185 205 207 202 220 237 232 220 196 176 171 177 182 178 174 173 179 189 196 205 212 216 222 229 235 238 248 261 267 270 264 249 238 243 263 277 285 292 298 303 307 305 288 265 246 232 224 216 208 205 198 192 197 208 217 224 226 226 231 240 248 255 257 257 258 260 257 251 249
20 32 38 35 17 1 347 345 348 345 347 354 359 3 18 49 82 127 162 144 154 234 241 234 223 209 198 194 191 186 184 186 188 192 196 207 220 231 243 247 248 249 254 262 269 273 273 265 255 254 263 270 274 281 289 298 309 309 284 240 216 204 195 186 180 178 181 185 196 211 212 211 222 231 240 248 252 253 250 245 245 247 247 248 255
11 13 11 4 1 357 341 333 326 322 325 334 339 342 346 357 21 49 50 55 67 52 27 21 228 232 227 215 207 201 195 191 188 187 192 202 211 224 243 252 253 258 265 270 269 266 263 265 266 262 261 262 263 266 271 277 284 276 242 209 191 183 177 176 175 174 180 189 197 204 212 223 237 246 249 251 250 246 243 243 250 262 276 285 290
5 1 356 353 352 346 332 324 305 297 300 307 317 325 326 326 330 339 341 347 10 17 15 41 67 29 287 223 210 206 201 196 190 189 193 202 212 227 241 247 248 254 267 278 280 270 260 258 260 258 253 251 251 250 247 241 233 222 209 196 187 180 174 173 178 182 187 195 202 210 223 237 247 251 254 255 255 255 260 275 293 302 310 314 312
352 349 346 345 345 343 336 327 318 314 308 284 276 282 286 296 306 311 311 308 310 320 336 356 10 6 13 79 198 201 200 197 192 193 200 211 226 237 240 242 245 251 262 278 292 287 267 253 249 246 241 238 235 229 216 207 205 202 198 195 194 190 182 177 179 187 194 202 209 219 228 239 245 245 247 255 271 292 302 311 318 321 326 328 326
338 336 337 336 334 333 330 325 325 329 328 313 287 284 289 295 294 289 285 283 283 286 292 293 294 296 292 283 191 205 207 207 211 226 240 244 242 239 239 243 246 250 262 281 296 295 271 248 237 231 227 224 220 212 200 194 197 197 196 197 195 190 188 185 181 182 191 198 198 199 197 194 199 212 253 304 318 321 320 322 327 331 335 336 332
336 335 335 334 328 324 321 319 318 319 318 315 308 303 305 303 289 281 284 284 281 282 284 281 273 261 250 250 264 270 261 261 280 294 292 283 266 249 245 248 248 250 263 282 290 286 263 239 224 217 215 211 205 201 194 191 193 195 196 199 197 190 190 192 182 168 165 168 162 156 156 152 148 334 334 330 324 322 323 327 333 338 338 335 332
334 332 331 331 327 320 317 317 319 319 317 311 303 296 297 294 284 283 290 290 285 280 278 276 273 270 266 260 262 268 265 261 277 290 298 301 285 261 251 251 250 255 269 278 274 262 243 225 211 205 206 203 196 191 190 191 193 197 198 199 198 189 187 193 190 169 154 153 154 154 159 164 326 334 337 334 325 321 326 332 338 342 338 333 330
321 320 320 321 318 313 312 315 318 320 321 318 308 296 289 285 283 288 292 288 283 278 273 270 270 271 266 255 250 252 249 248 262 278 284 288 283 267 257 255 255 259 265 264 251 235 222 212 205 200 196 193 190 188 190 194 198 202 203 198 191 184 183 190 187 163 145 148 156 165 182 288 327 333 343 348 338 331 333 331 333 337 337 334 333
305 307 309 309 306 304 304 306 309 312 316 321 321 314 304 295 293 295 294 286 279 273 267 264 263 260 256 251 248 247 247 253 266 279 283 280 274 266 260 256 253 253 254 249 235 221 213 205 198 194 189 187 187 188 190 192 195 199 197 190 185 181 178 177 166 144 134 135 136 131 23 348 344 356 28 41 33 20 8 358 348 341 339 338 337
298 301 305 304 301 300 300 301 303 304 301 301 307 311 312 312 313 314 311 299 287 276 268 262 256 248 243 244 246 247 250 256 264 270 272 271 271 272 271 263 252 246 244 238 223 209 201 196 192 190 189 189 187 188 191 191 190 190 187 180 176 167 158 155 150 137 125 109 89 76 76 91 89 74 59 43 32 23 7 355 347 340 338 337 335
299 302 304 301 295 292 294 295 296 296 294 293 293 293 295 299 300 302 306 306 302 299 294 278 256 244 242 245 249 251 252 254 257 259 261 264 266 267 267 261 247 235 228 220 207 196 193 194 194 193 191 188 185 187 192 191 187 187 184 177 171 162 155 158 153 130 107 92 97 101 101 97 83 58 39 27 19 8 356 349 345 341 339 337 334
312 313 311 305 296 291 289 289 289 291 294 295 292 288 287 287 288 289 290 288 288 289 289 286 280 271 264 261 261 261 259 257 256 256 258 262 261 256 253 250 241 229 217 205 198 199 204 207 204 196 188 184 184 189 194 192 189 188 183 174 169 167 167 167 141 87 88 108 115 109 96 77 50 29 18 12 6 360 356 352 348 344 342 337 333
323 323 320 313 304 297 292 288 287 289 291 289 286 283 282 280 281 282 280 277 276 277 276 275 274 272 274 275 273 269 261 252 247 245 246 247 241 235 234 232 226 222 218 213 209 210 214 215 211 201 192 189 193 196 195 192 188 185 181 177 175 172 167 131 86 94 119 123 112 88 59 38 25 17 12 9 5 1 357 352 348 344 340 335 333
316 314 312 308 303 299 295 291 290 291 289 282 277 277 276 276 277 278 276 271 269 269 267 266 264 263 265 266 261 257 250 239 231 226 221 214 210 209 208 205 203 206 213 220 221 219 219 218 213 204 201 207 213 204 191 184 179 175 175 178 173 161 139 112 113 127 127 107 81 60 44 31 23 19 15 12 7 1 355 349 344 338 334 332 330
308 306 302 300 299 298 297 295 295 298 296 290 285 281 277 274 273 271 270 270 267 263 258 256 256 257 257 251 244 244 243 234 222 214 207 199 193 192 195 197 199 201 204 211 217 217 215 215 213 208 205 211 214 198 183 175 171 169 170 169 158 143 128 120 124 132 115 85 64 52 42 30 24 21 16 10 3 357 352 347 340 335 332 332 330